[[[{"header":{"parameterUnit":"kt","parameterCategory":2,"dx":1,"dy":1,"la1":30.253999710083008,"la2":30.299108505249023,"lo1":-89.0895004272461,"lo2":-89.04439544677734,"nx":28,"ny":28,"refTime":"2022-10-28T21:00:00:Z","depth":"0","parameterNumber":2,"parameterNumberName":"U-component_of_CURRENTS"},"data":[-0.4481,-0.4443,-0.448,-0.4358,-0.4403,-0.4264,-0.4253,-0.4199,-0.4252,-0.4242,-0.4397,-0.4582,-0.4757,-0.5271,-0.5068,-0.4808,-0.4667,-0.451,-0.4519,-0.4779,-0.4819,-0.4857,-0.4821,-0.4485,-0.4485,-0.4103,-0.41,-0.4099,-0.4613,-0.4662,-0.4723,-0.4807,-0.4796,-0.4958,-0.5084,-0.5008,-0.5006,-0.5201,-0.5244,-0.5378,-0.524,-0.5263,-0.5122,-0.4903,-0.4754,-0.4758,-0.4772,-0.4652,-0.4923,-0.4875,-0.4546,-0.4546,-0.4546,-0.4546,-0.4546,-0.4546,-0.4883,-0.4881,-0.5007,-0.5084,-0.5208,-0.5276,-0.5261,-0.5465,-0.5567,-0.565,-0.5897,-0.5856,-0.5887,-0.5632,-0.5502,-0.5257,-0.529,-0.5114,-0.5174,-0.5215,-0.5021,-0.5305,-0.5081,-0.5084,-0.5086,-0.5088,-0.509,0,-0.5089,-0.5147,-0.5252,-0.5364,-0.5469,-0.558,-0.5732,-0.581,-0.6074,-0.6178,-0.6279,-0.6288,-0.6228,-0.6031,-0.5853,-0.569,-0.5647,-0.5635,-0.5669,-0.5391,-0.5379,-0.5182,-0.5562,-0.5429,-0.5434,-0.5437,-0.544,-0.5441,-0.5273,-0.5325,-0.5535,-0.5596,-0.5684,-0.5808,-0.5906,-0.6145,-0.6229,-0.6456,-0.6469,-0.6523,-0.6491,-0.6351,-0.6198,-0.6022,-0.599,-0.5749,-0.5726,-0.5718,-0.5717,-0.5745,-0.5607,-0.5491,-0.5485,-0.548,-0.5476,0,-0.5338,-0.5516,-0.563,-0.5855,-0.5925,-0.597,-0.6184,-0.6255,-0.6419,-0.6495,-0.6521,-0.6666,-0.6622,-0.6589,-0.6472,-0.6383,-0.6154,-0.6161,-0.5979,-0.5899,-0.5735,-0.5773,-0.5688,-0.5516,-0.5971,-0.5968,-0.5965,0,-0.5482,-0.5568,-0.5791,-0.5858,-0.5965,-0.6154,-0.6248,-0.6357,-0.6498,-0.6559,-0.6658,-0.6683,-0.6677,-0.6634,-0.6537,-0.6383,-0.6443,-0.6243,-0.6181,-0.6027,-0.6001,-0.594,-0.5965,-0.6348,-0.6348,-0.6349,-0.6349,0,-0.5486,-0.5716,-0.5839,-0.5915,-0.6153,-0.6218,-0.6319,-0.6461,-0.6539,-0.662,-0.6651,-0.6691,-0.6673,-0.6617,-0.6517,-0.6515,-0.6429,-0.6399,-0.6211,-0.6201,-0.5984,-0.5952,-0.5971,-0.635,-0.635,-0.6351,-0.6351,0,-0.5586,-0.571,-0.5869,-0.6083,-0.6129,-0.6213,-0.6364,-0.6463,-0.6567,-0.6592,-0.6632,-0.6613,-0.6648,-0.6573,-0.6539,-0.6541,-0.6444,-0.6382,-0.6376,-0.6219,-0.6116,-0.5864,-0.5888,-0.5883,-0.6258,-0.6258,-0.6258,0,-0.557,-0.574,-0.5851,-0.6005,-0.6104,-0.621,-0.6313,-0.6413,-0.6458,-0.6503,-0.6511,-0.652,-0.6497,-0.6469,-0.6478,-0.64,-0.6389,-0.6404,-0.6236,-0.6231,-0.6104,-0.6183,-0.5992,-0.59,-0.6257,-0.6257,-0.6257,0,-0.5545,-0.577,-0.5782,-0.5867,-0.6024,-0.6085,-0.6204,-0.6311,-0.6358,-0.639,-0.6433,-0.6458,-0.6416,-0.6409,-0.6368,-0.6364,-0.638,-0.6279,-0.6274,-0.623,-0.6312,-0.6193,-0.6182,-0.6331,-0.6332,-0.6333,-0.6256,0,-0.564,-0.5728,-0.5769,-0.5899,-0.597,-0.6043,-0.6134,-0.6181,-0.619,-0.6219,-0.6259,-0.6224,-0.6219,-0.6222,-0.6188,-0.6241,-0.6183,-0.6138,-0.6061,-0.6156,-0.6108,-0.6109,-0.6053,-0.605,-0.6048,-0.6046,0,0,-0.5578,-0.5674,-0.5731,-0.5815,-0.5875,-0.5913,-0.5992,-0.6031,-0.6072,-0.6093,-0.6051,-0.6055,-0.6016,-0.6068,-0.6106,-0.6079,-0.6035,-0.6044,-0.6117,-0.6126,-0.6133,-0.6092,-0.6096,-0.6042,-0.6042,-0.6041,-0.604,0,-0.5607,-0.5652,-0.5709,-0.5776,-0.5858,-0.5897,-0.592,-0.5974,-0.5987,-0.6026,-0.5983,-0.5985,-0.5954,-0.5956,-0.5948,-0.6044,-0.594,-0.6028,-0.6121,-0.6099,-0.611,-0.612,-0.6082,-0.6088,-0.6035,-0.6035,-0.6035,0,-0.5594,-0.5655,-0.5682,-0.5777,-0.5809,-0.5884,-0.5853,-0.5904,-0.5958,-0.5866,-0.5897,-0.5861,-0.5825,-0.5849,-0.5849,-0.5812,-0.5853,-0.584,-0.5852,-0.5859,-0.5831,-0.5845,-0.5858,-0.5688,-0.5687,-0.5686,0,0,-0.561,-0.5666,-0.5745,-0.5786,-0.5818,-0.5847,-0.5867,-0.588,-0.5889,-0.5882,-0.5845,-0.5814,-0.5807,-0.5792,-0.5771,-0.5783,-0.5736,-0.5801,-0.5817,-0.5831,-0.5845,-0.5822,-0.5836,-0.5683,-0.5683,-0.5683,0,0,-0.5607,-0.5704,-0.5714,-0.5769,-0.5825,-0.5864,-0.5877,-0.5879,-0.5869,-0.5852,-0.579,-0.5775,-0.5785,-0.5741,-0.5708,-0.5745,-0.5676,-0.568,-0.5774,-0.5793,-0.5809,-0.5832,-0.5618,0,0,0,0,0,-0.567,-0.5703,-0.5712,-0.5729,-0.5798,-0.5868,-0.5873,-0.5869,-0.5839,-0.5859,-0.5825,-0.5757,-0.5726,-0.5696,-0.5681,-0.5714,-0.5641,-0.5648,-0.5655,-0.5778,-0.5799,-0.5817,0,0,0,0,0,0,-0.5677,-0.5698,-0.5712,-0.5757,-0.5773,-0.5865,-0.5821,-0.582,-0.5838,-0.5833,-0.577,-0.5755,-0.5708,-0.5696,-0.5685,-0.5718,-0.5621,-0.5644,-0.565,-0.5656,-0.5785,-0.5803,-0.5818,0,0,0,0,0,-0.5682,-0.57,-0.5816,-0.5755,-0.5768,-0.5783,-0.5819,-0.5817,-0.5819,-0.5771,-0.5758,-0.5818,-0.571,-0.5695,-0.5689,-0.5726,-0.5629,-0.5625,-0.5648,-0.5653,-0.5657,-0.5794,0,0,0,0,0,0,-0.5687,-0.5675,-0.5818,-0.5821,-0.5742,-0.5776,-0.5783,-0.5815,-0.5752,-0.5745,-0.5815,-0.5811,-0.5712,-0.57,-0.5689,-0.5734,-0.5634,-0.563,-0.5628,-0.5652,-0.5656,-0.5659,0,0,0,0,0,0,-0.5667,-0.5678,-0.5819,-0.5803,-0.5804,-0.577,-0.5777,-0.5741,-0.5747,-0.5795,-0.5794,-0.5813,-0.5703,-0.5703,-0.5695,-0.5641,-0.5639,-0.5635,-0.5633,-0.5631,-0.5655,-0.5658,0,0,0,0,0,0,-0.5671,-0.5681,-0.5801,-0.5802,-0.5802,-0.583,-0.5733,-0.5781,-0.5805,-0.5794,-0.5802,-0.58,-0.5706,-0.5698,-0.5699,-0.565,-0.5644,-0.5639,-0.5636,-0.5634,-0.5633,0,0,0,0,0,0,0,-0.5675,-0.5619,-0.5811,-0.5801,-0.5801,-0.5854,-0.5854,-0.5853,-0.5805,-0.5803,-0.5802,-0.58,-0.5661,-0.5657,-0.5652,-0.5656,0,0,-0.5639,-0.5637,0,0,0,0,0,0,0,0,-0.5615,-0.5618,-0.5811,-0.5813,-0.5814,-0.5854,-0.5854,-0.5853,-0.5805,-0.5803,-0.5802,-0.5801,-0.566,-0.5656,-0.5653,0,0,0,0,0,0,0,0,0,0,0,0,0,0,0,-0.5811,-0.5812,0,-0.5854,-0.5854,-0.5854,-0.5805,-0.5804,-0.5803,-0.5802,-0.5659,-0.5656,-0.5653,0,0,0,0,0,0,0,0,0,0,0,0,0,0,0,0,0,0,0,0,0,0,0,0,0,0,0,0,0,0,0,0,0,0,0,0,0,0,0,0,0,0,0,0,0,0,0,0,0,0,0,0,0,0,0,0,0,0,0,0,0,0,0,0,0,0,0,0,0]}],[{"header":{"parameterUnit":"kt","parameterCategory":2,"dx":1,"dy":1,"la1":30.253999710083008,"la2":30.299108505249023,"lo1":-89.0895004272461,"lo2":-89.04439544677734,"nx":28,"ny":28,"refTime":"2022-10-28T21:00:00:Z","depth":"0","parameterNumber":3,"parameterNumberName":"V-component_of_CURRENTS"},"data":[-0.2235,-0.2441,-0.2528,-0.2739,-0.2821,-0.2827,-0.2757,-0.2383,-0.1913,-0.0883,0.0034,0.0754,0.2328,0.4591,0.584,0.5888,0.6292,0.6185,0.6387,0.5731,0.5628,0.5531,0.5597,0.6514,0.6516,0.741,0.7419,0.7426,-0.2157,-0.2278,-0.2441,-0.2584,-0.2686,-0.2666,-0.2588,-0.2427,-0.2136,-0.1557,-0.1012,0.0492,0.1766,0.2903,0.4281,0.4749,0.4823,0.4921,0.5059,0.517,0.4159,0.4186,0.4818,0.4818,0.4817,0.4817,0.4816,0.4816,-0.2013,-0.2128,-0.2238,-0.2377,-0.2455,-0.2492,-0.2474,-0.2318,-0.2122,-0.1626,-0.1254,-0.0499,0.0816,0.2098,0.2544,0.3513,0.3305,0.3742,0.384,0.3853,0.4092,0.285,0.3314,0.3312,0.331,0.3308,0.3307,0,-0.1905,-0.1917,-0.2,-0.2159,-0.2213,-0.2251,-0.2199,-0.2167,-0.1867,-0.1637,-0.1193,-0.0794,0.0165,0.1079,0.1919,0.2276,0.2809,0.2613,0.3037,0.3411,0.3462,0.3724,0.2397,0.2771,0.2765,0.2761,0.2759,0.2756,-0.1734,-0.1797,-0.1858,-0.1931,-0.1928,-0.1947,-0.1939,-0.1736,-0.1646,-0.1239,-0.115,-0.0622,-0.0174,0.0732,0.1386,0.2035,0.2279,0.2473,0.2439,0.2812,0.3004,0.3045,0.3206,0.2699,0.2706,0.2712,0.2717,0,-0.1635,-0.1624,-0.171,-0.168,-0.1679,-0.1712,-0.1607,-0.156,-0.1329,-0.1159,-0.1078,-0.0594,-0.0088,0.0403,0.0979,0.1275,0.2006,0.1896,0.1948,0.2055,0.2713,0.2813,0.3399,0.3641,0.2289,0.2294,0.2299,0,-0.1455,-0.1514,-0.1487,-0.153,-0.1588,-0.1439,-0.1414,-0.1275,-0.1049,-0.0933,-0.0612,-0.0421,0.0059,0.0426,0.075,0.1262,0.1242,0.1568,0.1674,0.1762,0.1778,0.2257,0.2378,0.1527,0.1525,0.1523,0.1521,0,-0.1287,-0.1313,-0.1391,-0.1379,-0.1289,-0.1261,-0.1186,-0.0953,-0.0867,-0.0595,-0.0497,-0.0156,0.0031,0.0349,0.0758,0.072,0.1224,0.1242,0.1557,0.1567,0.1814,0.184,0.2409,0.1518,0.1517,0.1516,0.1515,0,-0.1105,-0.1142,-0.1219,-0.1176,-0.1163,-0.1133,-0.0983,-0.0894,-0.0619,-0.0494,-0.0278,-0.0076,0.018,0.0255,0.0686,0.0581,0.0796,0.0984,0.1002,0.1194,0.1279,0.1622,0.1779,0.2204,0.1212,0.1209,0.1206,0,-0.0978,-0.1054,-0.097,-0.1009,-0.1028,-0.0854,-0.0777,-0.0628,-0.0469,-0.0318,-0.0076,0.0077,0.0187,0.0272,0.0429,0.0687,0.0819,0.0669,0.109,0.1102,0.1187,0.1282,0.1427,0.171,0.1164,0.1168,0.1172,0,-0.0861,-0.0818,-0.0828,-0.0837,-0.0715,-0.0684,-0.0592,-0.0463,-0.0395,-0.0223,-0.0113,0.0107,0.0224,0.0334,0.0485,0.0622,0.0756,0.0699,0.0712,0.0783,0.1081,0.1208,0.1249,0.0838,0.0842,0.0845,0.1138,0,-0.0711,-0.0721,-0.0733,-0.0688,-0.0628,-0.0617,-0.0465,-0.0388,-0.0286,-0.0169,0.0001,0.0196,0.0376,0.0442,0.0529,0.0668,0.0709,0.0774,0.0821,0.0832,0.0961,0.0986,0.0725,0.0728,0.073,0.0732,0,0,-0.0613,-0.0631,-0.0531,-0.0535,-0.0499,-0.0348,-0.0357,-0.0256,-0.0101,-0.0034,0.0005,0.0298,0.043,0.0599,0.0605,0.0682,0.0773,0.0675,0.0819,0.0828,0.0837,0.0958,0.098,0.0736,0.0737,0.0737,0.0738,0,-0.0557,-0.0508,-0.0537,-0.0477,-0.039,-0.0305,-0.0298,-0.0169,-0.0098,0.0002,0.0135,0.0266,0.0442,0.0578,0.0668,0.07,0.0817,0.0735,0.0671,0.0833,0.0838,0.0844,0.0963,0.0982,0.0744,0.0743,0.0743,0,-0.0466,-0.042,-0.0418,-0.0338,-0.0269,-0.0235,-0.0133,-0.0083,-0.0039,0.0123,0.0211,0.0335,0.0506,0.0613,0.0671,0.0698,0.0869,0.0802,0.0794,0.0783,0.0954,0.0959,0.0964,0.0897,0.0897,0.0896,0,0,-0.0426,-0.0427,-0.0313,-0.0316,-0.0282,-0.0161,-0.0118,-0.0052,0.0059,0.0105,0.0227,0.0364,0.0488,0.0561,0.0675,0.0772,0.0873,0.0811,0.0805,0.0798,0.0782,0.095,0.0956,0.0895,0.0895,0.0895,0,0,-0.0394,-0.0304,-0.0264,-0.0264,-0.018,-0.0047,-0.0034,0.0036,0.0141,0.015,0.0303,0.0342,0.0446,0.0546,0.051,0.0692,0.0734,0.0744,0.0603,0.0597,0.059,0.0537,0.0601,0,0,0,0,0,-0.0291,-0.0319,-0.0285,-0.027,-0.0153,-0.007,-0.0048,0.0049,0.0085,0.0096,0.022,0.0288,0.0566,0.0536,0.0571,0.0586,0.0875,0.0879,0.0882,0.0725,0.0717,0.0709,0,0,0,0,0,0,-0.0284,-0.027,-0.0282,-0.0161,-0.0132,-0.0069,0.0005,0.0032,0.0086,0.0097,0.0263,0.0293,0.0395,0.0526,0.0556,0.0568,0.0592,0.0877,0.088,0.0882,0.0723,0.0715,0.0709,0,0,0,0,0,-0.0279,-0.0266,-0.0119,-0.0157,-0.0133,-0.0004,0.0005,0.0029,0.0074,0.0235,0.0265,0.0143,0.0392,0.0426,0.0544,0.0552,0.0572,0.0583,0.0879,0.0881,0.0883,0.0719,0,0,0,0,0,0,-0.0274,-0.023,-0.011,-0.0096,-0.0156,-0.0005,0.0016,0.0025,0.0212,0.024,0.0122,0.0128,0.039,0.0417,0.0442,0.054,0.0556,0.0567,0.0574,0.088,0.0882,0.0884,0,0,0,0,0,0,-0.0235,-0.022,-0.0102,-0.0107,-0.0092,-0.0006,0.0013,0.0118,0.0214,0.0089,0.01,0.0123,0.0367,0.041,0.043,0.0591,0.0544,0.0554,0.0561,0.0566,0.0882,0.0883,0,0,0,0,0,0,-0.0226,-0.0212,-0.0109,-0.0099,-0.0086,0.0077,0.0094,0.0217,0.0178,0.0081,0.018,0.0181,0.0359,0.0381,0.0422,0.0573,0.0587,0.0544,0.0551,0.0556,0.056,0,0,0,0,0,0,0,-0.0218,-0.0347,-0.0193,-0.0092,-0.0081,0.0031,0.0035,0.0039,0.0178,0.0179,0.018,0.0181,0.0486,0.0497,0.0508,0.0559,0,0,0.0543,0.0548,0,0,0,0,0,0,0,0,-0.0349,-0.0348,-0.0193,-0.019,-0.0187,0.0031,0.0035,0.0038,0.0178,0.0179,0.018,0.018,0.0489,0.0498,0.0507,0,0,0,0,0,0,0,0,0,0,0,0,0,0,0,-0.0192,-0.019,0,0.0032,0.0035,0.0037,0.0178,0.0179,0.0179,0.018,0.0491,0.0499,0.0506,0,0,0,0,0,0,0,0,0,0,0,0,0,0,0,0,0,0,0,0,0,0,0,0,0,0,0,0,0,0,0,0,0,0,0,0,0,0,0,0,0,0,0,0,0,0,0,0,0,0,0,0,0,0,0,0,0,0,0,0,0,0,0,0,0,0,0,0,0]}]],[[{"header":{"parameterUnit":"kt","parameterCategory":2,"dx":1,"dy":1,"la1":30.253999710083008,"la2":30.299108505249023,"lo1":-89.0895004272461,"lo2":-89.04439544677734,"nx":28,"ny":28,"refTime":"2022-10-28T21:00:00:Z","depth":"2","parameterNumber":2,"parameterNumberName":"U-component_of_CURRENTS"},"data":[-0.436,-0.431,-0.4344,-0.4204,-0.427,-0.4051,-0.4035,-0.3818,-0.3701,-0.3383,-0.3254,-0.3527,-0.3774,-0.3138,-0.3075,-0.2787,-0.3044,-0.2631,-0.3848,-0.3769,-0.3843,-0.4114,-0.3989,0,0,0,0,0,-0.4495,-0.4567,-0.4626,-0.4707,-0.4663,-0.4854,-0.4973,-0.4791,-0.4696,-0.4733,-0.4686,-0.4212,-0.4017,-0.4018,-0.3588,-0.3591,-0.3499,-0.3465,-0.3336,-0.3425,-0.3504,-0.336,-0.2636,-0.2632,-0.2629,-0.2625,0,0,-0.4783,-0.4781,-0.4904,-0.498,-0.5101,-0.5165,-0.5148,-0.5289,-0.5368,-0.534,-0.5654,-0.5428,-0.5433,-0.4838,-0.4643,-0.4447,-0.4793,-0.4581,-0.4608,-0.4647,-0.4563,-0.4501,-0.4158,-0.4164,-0.417,-0.4175,-0.4179,0,-0.4983,-0.5042,-0.5144,-0.5255,-0.5358,-0.5464,-0.5613,-0.5689,-0.5947,-0.6037,-0.6135,-0.6135,-0.6025,-0.5635,-0.5434,-0.5253,-0.5323,-0.5111,-0.5897,-0.4866,-0.4804,-0.4752,-0.4794,-0.4535,-0.4544,-0.455,-0.4555,-0.4559,-0.5164,-0.5215,-0.5421,-0.5481,-0.5568,-0.569,-0.5786,-0.6021,-0.6102,-0.6326,-0.6338,-0.6395,-0.6353,-0.6216,-0.6006,-0.5817,-0.5992,-0.5314,-0.5247,-0.5936,-0.5883,-0.5889,-0.5894,-0.4655,-0.4642,-0.4632,-0.4624,0,-0.5227,-0.5402,-0.5513,-0.5733,-0.5802,-0.5847,-0.6057,-0.6127,-0.629,-0.6365,-0.6392,-0.6536,-0.6494,-0.6464,-0.635,-0.6262,-0.6132,-0.6043,-0.5556,-0.5443,-0.5917,-0.5916,-0.586,-0.5856,-0.5852,-0.5849,-0.5846,0,-0.5367,-0.5451,-0.567,-0.5736,-0.5841,-0.6025,-0.6119,-0.6226,-0.6365,-0.6426,-0.6526,-0.655,-0.6548,-0.6507,-0.6412,-0.6261,-0.6321,-0.6121,-0.6061,-0.564,-0.5593,-0.6144,-0.6135,-0.6227,-0.6227,-0.6228,-0.6228,0,-0.5372,-0.5596,-0.5716,-0.579,-0.6023,-0.6087,-0.6186,-0.6326,-0.6403,-0.6485,-0.6517,-0.6558,-0.6543,-0.6488,-0.6393,-0.639,-0.6308,-0.6276,-0.6091,-0.608,-0.5604,-0.555,-0.6229,-0.6229,-0.6229,-0.623,-0.623,0,-0.547,-0.559,-0.5745,-0.5953,-0.5998,-0.6081,-0.623,-0.6326,-0.6429,-0.6456,-0.6498,-0.6481,-0.6516,-0.6444,-0.6412,-0.6414,-0.6321,-0.626,-0.6254,-0.6097,-0.5995,-0.5468,-0.5425,-0.6138,-0.6138,-0.6138,-0.6138,0,-0.5454,-0.5619,-0.5728,-0.5878,-0.5974,-0.6078,-0.6179,-0.6278,-0.6324,-0.6369,-0.6378,-0.6389,-0.6367,-0.6342,-0.6352,-0.6276,-0.6266,-0.628,-0.6115,-0.6111,-0.5985,-0.6062,-0.5566,-0.545,-0.6137,-0.6137,-0.6137,0,-0.543,-0.5648,-0.5661,-0.5743,-0.5897,-0.5956,-0.6073,-0.6178,-0.6226,-0.626,-0.6303,-0.6329,-0.629,-0.6282,-0.6242,-0.6239,-0.6256,-0.6156,-0.6152,-0.6109,-0.6191,-0.6073,-0.6061,-0.621,-0.6211,-0.6212,-0.6136,0,-0.5521,-0.5608,-0.5648,-0.5774,-0.5844,-0.5915,-0.6004,-0.6052,-0.6064,-0.6093,-0.6135,-0.61,-0.6096,-0.6099,-0.6066,-0.6118,-0.6061,-0.6017,-0.5941,-0.6035,-0.5988,-0.5989,-0.5933,-0.593,-0.5928,-0.5926,0,0,-0.5461,-0.5554,-0.561,-0.5691,-0.5751,-0.5789,-0.5866,-0.5906,-0.5947,-0.5969,-0.593,-0.5934,-0.5896,-0.5946,-0.5984,-0.5957,-0.5915,-0.5924,-0.5997,-0.6005,-0.6012,-0.5972,-0.5976,-0.5922,-0.5921,-0.5921,-0.592,0,-0.5488,-0.5533,-0.5588,-0.5654,-0.5735,-0.5772,-0.5796,-0.585,-0.5864,-0.5904,-0.5863,-0.5865,-0.5836,-0.5837,-0.5828,-0.5922,-0.5821,-0.5908,-0.6,-0.5978,-0.599,-0.5999,-0.5962,-0.5967,-0.5914,-0.5915,-0.5915,0,-0.5475,-0.5535,-0.5561,-0.5653,-0.5685,-0.5758,-0.5729,-0.578,-0.5834,-0.5745,-0.5777,-0.5743,-0.5707,-0.573,-0.5731,-0.5694,-0.5735,-0.5722,-0.5734,-0.574,-0.5713,-0.5727,-0.574,-0.5571,-0.557,-0.5569,0,0,-0.549,-0.5544,-0.5621,-0.5661,-0.5693,-0.5723,-0.5743,-0.5756,-0.5766,-0.5761,-0.5726,-0.5695,-0.5689,-0.5674,-0.5654,-0.5665,-0.5619,-0.5683,-0.57,-0.5713,-0.5727,-0.5704,-0.5718,-0.5566,-0.5566,-0.5566,0,0,-0.5487,-0.558,-0.5591,-0.5645,-0.5699,-0.5737,-0.5751,-0.5755,-0.5747,-0.5732,-0.5671,-0.5657,-0.5668,-0.5624,-0.5592,-0.5628,-0.5559,-0.5564,-0.5658,-0.5677,-0.5692,-0.5715,-0.5503,0,0,0,0,0,-0.5547,-0.5579,-0.5589,-0.5605,-0.5673,-0.5741,-0.5745,-0.5744,-0.5717,-0.5737,-0.5705,-0.5639,-0.5609,-0.5579,-0.5565,-0.5598,-0.5525,-0.5532,-0.5539,-0.5662,-0.5683,-0.5701,0,0,0,0,0,0,-0.5554,-0.5574,-0.5588,-0.5632,-0.5648,-0.5738,-0.5696,-0.5695,-0.5715,-0.5711,-0.5651,-0.5637,-0.559,-0.558,-0.5569,-0.5602,-0.5506,-0.5528,-0.5534,-0.554,-0.5669,-0.5686,-0.5701,0,0,0,0,0,-0.5559,-0.5576,-0.5689,-0.563,-0.5643,-0.5659,-0.5694,-0.5693,-0.5697,-0.5649,-0.5637,-0.5699,-0.5592,-0.5578,-0.5573,-0.561,-0.5513,-0.551,-0.5532,-0.5537,-0.5541,-0.5678,0,0,0,0,0,0,-0.5563,-0.5552,-0.5691,-0.5694,-0.5618,-0.5653,-0.5659,-0.5691,-0.5631,-0.5624,-0.5692,-0.5689,-0.5593,-0.5582,-0.5572,-0.5618,-0.5519,-0.5515,-0.5513,-0.5536,-0.5539,-0.5543,0,0,0,0,0,0,-0.5544,-0.5555,-0.5692,-0.5678,-0.5679,-0.5647,-0.5654,-0.5618,-0.5626,-0.5672,-0.5672,-0.5691,-0.5585,-0.5585,-0.5577,-0.5523,-0.5524,-0.552,-0.5517,-0.5516,-0.5539,-0.5542,0,0,0,0,0,0,-0.5548,-0.5558,-0.5676,-0.5677,-0.5678,-0.5706,-0.561,-0.5657,-0.5684,-0.5671,-0.568,-0.5679,-0.5588,-0.558,-0.5581,-0.5531,-0.5525,-0.5524,-0.5521,-0.5519,-0.5518,0,0,0,0,0,0,0,-0.5552,-0.5497,-0.5684,-0.5676,-0.5677,-0.5727,-0.5727,-0.5726,-0.5683,-0.5682,-0.5681,-0.5679,-0.5545,-0.5541,-0.5537,-0.5538,0,0,-0.5524,-0.5522,0,0,0,0,0,0,0,0,-0.5493,-0.5496,-0.5684,-0.5685,-0.5687,-0.5727,-0.5727,-0.5727,-0.5683,-0.5682,-0.5681,-0.568,-0.5544,-0.5541,-0.5537,0,0,0,0,0,0,0,0,0,0,0,0,0,0,0,-0.5684,-0.5685,0,-0.5727,-0.5727,-0.5727,-0.5683,-0.5682,-0.5681,-0.568,-0.5543,-0.554,-0.5538,0,0,0,0,0,0,0,0,0,0,0,0,0,0,0,0,0,0,0,0,0,0,0,0,0,0,0,0,0,0,0,0,0,0,0,0,0,0,0,0,0,0,0,0,0,0,0,0,0,0,0,0,0,0,0,0,0,0,0,0,0,0,0,0,0,0,0,0,0]}],[{"header":{"parameterUnit":"kt","parameterCategory":2,"dx":1,"dy":1,"la1":30.253999710083008,"la2":30.299108505249023,"lo1":-89.0895004272461,"lo2":-89.04439544677734,"nx":28,"ny":28,"refTime":"2022-10-28T21:00:00:Z","depth":"2","parameterNumber":3,"parameterNumberName":"V-component_of_CURRENTS"},"data":[-0.2306,-0.2509,-0.2596,-0.2811,-0.2895,-0.2938,-0.2874,-0.2673,-0.2375,-0.1979,-0.1576,-0.0985,-0.0069,0.0382,0.0995,0.1368,0.1388,0.1364,0.1608,0.1171,0.1166,0.1594,0.1405,0,0,0,0,0,-0.2228,-0.2349,-0.2512,-0.2656,-0.276,-0.274,-0.2668,-0.2575,-0.234,-0.1963,-0.1504,-0.0797,-0.0023,0.0692,0.1402,0.1931,0.1798,0.199,0.1689,0.1687,0.1687,0.1571,0.1694,0.1696,0.1698,0.1699,0,0,-0.2087,-0.22,-0.231,-0.2448,-0.2527,-0.2567,-0.2552,-0.2432,-0.2251,-0.1866,-0.1453,-0.0879,-0.0183,0.0883,0.1451,0.1907,0.1936,0.2,0.1988,0.1979,0.1888,0.1794,0.2089,0.2091,0.2094,0.2096,0.2098,0,-0.198,-0.1991,-0.2074,-0.2232,-0.2286,-0.2326,-0.2278,-0.2249,-0.1957,-0.1739,-0.1308,-0.0928,-0.0076,0.0587,0.1379,0.1686,0.1794,0.1926,0.2052,0.1488,0.1374,0.1429,0.1409,0.161,0.161,0.1611,0.1611,0.1611,-0.181,-0.1873,-0.1934,-0.2007,-0.2004,-0.2024,-0.2019,-0.182,-0.1733,-0.1337,-0.1252,-0.0734,-0.0306,0.0586,0.1138,0.1754,0.178,0.1906,0.182,0.1822,0.1888,0.1855,0.1824,0.1615,0.1614,0.1614,0.1614,0,-0.1712,-0.1702,-0.1788,-0.1758,-0.1758,-0.1792,-0.169,-0.1646,-0.1419,-0.1255,-0.1176,-0.0701,-0.0202,0.0283,0.0852,0.1144,0.1591,0.1755,0.1415,0.1476,0.1803,0.1779,0.2123,0.213,0.2136,0.2141,0.2145,0,-0.1535,-0.1594,-0.1568,-0.161,-0.1669,-0.1522,-0.15,-0.1363,-0.1143,-0.1032,-0.0713,-0.0527,-0.0052,0.031,0.0633,0.1136,0.1119,0.1435,0.1539,0.1284,0.1273,0.132,0.1308,0.1402,0.14,0.1398,0.1396,0,-0.137,-0.1395,-0.1473,-0.1461,-0.1374,-0.1346,-0.1274,-0.1046,-0.0962,-0.0696,-0.0599,-0.0263,-0.0079,0.0237,0.0642,0.0606,0.1101,0.1121,0.1426,0.1436,0.1345,0.1341,0.1393,0.1393,0.1392,0.1391,0.139,0,-0.1191,-0.1227,-0.1304,-0.1262,-0.1249,-0.122,-0.1074,-0.0987,-0.0718,-0.0595,-0.0383,-0.0183,0.007,0.0146,0.0572,0.0469,0.0683,0.0868,0.0886,0.1068,0.1152,0.1134,0.1201,0.1096,0.1093,0.1089,0.1087,0,-0.1066,-0.1141,-0.1059,-0.1097,-0.1115,-0.0944,-0.087,-0.0723,-0.0567,-0.0419,-0.0181,-0.0031,0.0081,0.0165,0.032,0.0575,0.0705,0.0558,0.0973,0.0984,0.1063,0.1155,0.0905,0.115,0.1045,0.1049,0.1053,0,-0.0951,-0.0909,-0.0918,-0.0927,-0.0807,-0.0777,-0.0686,-0.056,-0.0494,-0.0323,-0.0216,0.0002,0.0118,0.0226,0.0376,0.0511,0.0644,0.0588,0.06,0.0671,0.0964,0.1082,0.1122,0.0725,0.0728,0.0732,0.102,0,-0.0804,-0.0814,-0.0826,-0.078,-0.0721,-0.071,-0.0561,-0.0485,-0.0383,-0.0267,-0.0101,0.0092,0.0269,0.0335,0.042,0.0557,0.0598,0.0662,0.0709,0.0718,0.0845,0.087,0.0614,0.0616,0.0619,0.062,0,0,-0.0708,-0.0726,-0.0627,-0.063,-0.0595,-0.0445,-0.0454,-0.0354,-0.02,-0.0134,-0.0095,0.0194,0.0324,0.0489,0.0496,0.0571,0.0661,0.0565,0.0706,0.0715,0.0723,0.0843,0.0864,0.0624,0.0625,0.0626,0.0627,0,-0.0653,-0.0605,-0.0633,-0.0573,-0.0487,-0.0403,-0.0396,-0.0267,-0.0197,-0.0098,0.0033,0.0163,0.0336,0.047,0.0558,0.0589,0.0704,0.0623,0.056,0.0719,0.0725,0.0731,0.0848,0.0866,0.0632,0.0632,0.0631,0,-0.0564,-0.0518,-0.0516,-0.0437,-0.0368,-0.0334,-0.0233,-0.0183,-0.014,0.0022,0.0109,0.0231,0.0399,0.0505,0.0562,0.0589,0.0756,0.0691,0.0683,0.0672,0.084,0.0845,0.085,0.0785,0.0784,0.0784,0,0,-0.0524,-0.0525,-0.0412,-0.0415,-0.0382,-0.0261,-0.0218,-0.0152,-0.0042,0.0004,0.0125,0.026,0.0381,0.0454,0.0566,0.0662,0.0761,0.07,0.0693,0.0687,0.0671,0.0836,0.0842,0.0782,0.0782,0.0782,0,0,-0.0493,-0.0403,-0.0364,-0.0363,-0.028,-0.0149,-0.0135,-0.0066,0.0038,0.0049,0.02,0.0239,0.0342,0.044,0.0405,0.0583,0.0625,0.0634,0.0497,0.049,0.0483,0.0432,0.0495,0,0,0,0,0,-0.0391,-0.0419,-0.0385,-0.037,-0.0254,-0.0172,-0.015,-0.0053,-0.0016,-0.0006,0.0118,0.0185,0.0459,0.0431,0.0465,0.048,0.0764,0.0767,0.077,0.0617,0.0608,0.0601,0,0,0,0,0,0,-0.0384,-0.037,-0.0382,-0.0262,-0.0233,-0.0171,-0.0097,-0.007,-0.0016,-0.0004,0.016,0.019,0.0291,0.0421,0.045,0.0462,0.0486,0.0765,0.0768,0.077,0.0614,0.0607,0.0601,0,0,0,0,0,-0.0379,-0.0366,-0.022,-0.0258,-0.0234,-0.0106,-0.0097,-0.0073,-0.0027,0.0132,0.0162,0.0041,0.0288,0.0321,0.0439,0.0446,0.0467,0.0477,0.0767,0.0769,0.0771,0.0611,0,0,0,0,0,0,-0.0374,-0.033,-0.0211,-0.0198,-0.0256,-0.0106,-0.0085,-0.0077,0.0108,0.0137,0.002,0.0026,0.0286,0.0312,0.0337,0.0434,0.0451,0.0462,0.0468,0.0769,0.077,0.0772,0,0,0,0,0,0,-0.0335,-0.0321,-0.0204,-0.0208,-0.0193,-0.0107,-0.0089,0.0015,0.0111,-0.0012,-0.0002,0.0021,0.0263,0.0306,0.0326,0.0484,0.0439,0.0449,0.0456,0.046,0.077,0.0771,0,0,0,0,0,0,-0.0326,-0.0313,-0.021,-0.02,-0.0187,-0.0025,-0.0009,0.0113,0.0075,-0.0021,0.0078,0.0079,0.0256,0.0277,0.0317,0.0467,0.048,0.0439,0.0446,0.0451,0.0454,0,0,0,0,0,0,0,-0.0318,-0.0447,-0.0294,-0.0193,-0.0182,-0.0072,-0.0068,-0.0064,0.0075,0.0077,0.0078,0.0079,0.0381,0.0392,0.0404,0.0452,0,0,0.0438,0.0443,0,0,0,0,0,0,0,0,-0.0448,-0.0447,-0.0294,-0.0291,-0.0288,-0.0071,-0.0068,-0.0065,0.0076,0.0077,0.0077,0.0078,0.0384,0.0393,0.0402,0,0,0,0,0,0,0,0,0,0,0,0,0,0,0,-0.0293,-0.0291,0,-0.0071,-0.0068,-0.0065,0.0076,0.0077,0.0077,0.0078,0.0387,0.0394,0.0402,0,0,0,0,0,0,0,0,0,0,0,0,0,0,0,0,0,0,0,0,0,0,0,0,0,0,0,0,0,0,0,0,0,0,0,0,0,0,0,0,0,0,0,0,0,0,0,0,0,0,0,0,0,0,0,0,0,0,0,0,0,0,0,0,0,0,0,0,0]}]],[[{"header":{"parameterUnit":"kt","parameterCategory":2,"dx":1,"dy":1,"la1":30.253999710083008,"la2":30.299108505249023,"lo1":-89.0895004272461,"lo2":-89.04439544677734,"nx":28,"ny":28,"refTime":"2022-10-28T21:00:00:Z","depth":"4","parameterNumber":2,"parameterNumberName":"U-component_of_CURRENTS"},"data":[-0.2523,-0.2617,-0.2654,-0.2588,-0.2605,-0.2746,-0.2894,-0.3114,-0.3062,-0.3386,-0.3349,-0.3608,-0.3569,-0.379,-0.3548,-0.3571,-0.3591,-0.3845,-0.3835,-0.404,-0.4075,-0.4107,-0.4046,0,0,0,0,0,-0.2642,-0.2661,-0.2771,-0.2906,-0.3085,-0.3177,-0.3455,-0.3627,-0.3924,-0.3767,-0.3941,-0.387,-0.3781,-0.3867,-0.3653,-0.3995,-0.4008,-0.3735,-0.3894,-0.4062,-0.4101,-0.4029,0,0,0,0,0,0,-0.2841,-0.2878,-0.3082,-0.3218,-0.3424,-0.3472,-0.3637,-0.3729,-0.3856,-0.4175,-0.4131,-0.4247,-0.4435,-0.4266,-0.4174,-0.4053,-0.3999,-0.3878,-0.3924,-0.3963,-0.3871,-0.3768,-0.3375,0,0,0,0,0,-0.3012,-0.316,-0.3307,-0.3511,-0.3686,-0.3836,-0.404,-0.4077,-0.4365,-0.4643,-0.4586,-0.456,-0.4515,-0.4468,-0.4375,-0.4266,-0.4559,-0.4395,-0.4415,-0.4418,-0.4379,-0.4333,-0.4355,-0.425,-0.4255,-0.4258,-0.426,0,-0.3208,-0.3296,-0.3636,-0.3741,-0.3894,-0.4107,-0.4239,-0.4541,-0.462,-0.4887,-0.4878,-0.4985,-0.5044,-0.4716,-0.4804,-0.4644,-0.4585,-0.4498,-0.4501,-0.4443,-0.4385,-0.4398,-0.4407,-0.4292,-0.4289,-0.4287,-0.4284,0,-0.3291,-0.3517,-0.3696,-0.4012,-0.4121,-0.4228,-0.4529,-0.4625,-0.4862,-0.4962,-0.5022,-0.5215,-0.5183,-0.5218,-0.5159,-0.5006,-0.4855,-0.4729,-0.5078,-0.5026,-0.4466,-0.4463,-0.4344,-0.4332,-0.4323,-0.4314,-0.4307,0,-0.3467,-0.3599,-0.3908,-0.3993,-0.4167,-0.4387,-0.4559,-0.4712,-0.4917,-0.4996,-0.5182,-0.5216,-0.5322,-0.5311,-0.5245,-0.503,-0.5198,-0.483,-0.4755,-0.5093,-0.5088,-0.5018,-0.5004,-0.5142,-0.5142,-0.5143,-0.5143,0,-0.3507,-0.3776,-0.3937,-0.4026,-0.4307,-0.4429,-0.457,-0.4776,-0.4888,-0.5068,-0.5142,-0.5251,-0.5297,-0.5278,-0.5225,-0.523,-0.5183,-0.516,-0.4817,-0.4794,-0.5016,-0.5001,-0.5144,-0.5144,-0.5144,-0.5144,-0.5145,0,-0.3624,-0.376,-0.3956,-0.42,-0.426,-0.4388,-0.4606,-0.4739,-0.492,-0.5006,-0.5117,-0.5153,-0.5245,-0.5198,-0.5218,-0.522,-0.5155,-0.5111,-0.5106,-0.4751,-0.4631,-0.483,-0.499,-0.4989,-0.4989,-0.4988,-0.4988,0,-0.3611,-0.3799,-0.3918,-0.4111,-0.4218,-0.4365,-0.4505,-0.4655,-0.4769,-0.4889,-0.4955,-0.5045,-0.5046,-0.5077,-0.5113,-0.507,-0.5082,-0.508,-0.4939,-0.4934,-0.4632,-0.4704,-0.5051,-0.4981,-0.4982,-0.4982,-0.4983,0,-0.357,-0.3817,-0.3842,-0.3943,-0.4134,-0.4206,-0.4379,-0.4527,-0.4625,-0.4754,-0.486,-0.4961,-0.4971,-0.4982,-0.4975,-0.4996,-0.506,-0.4935,-0.493,-0.4887,-0.5043,-0.4732,-0.4706,-0.5041,-0.5043,-0.5044,-0.4978,0,-0.3641,-0.3758,-0.3813,-0.3958,-0.4051,-0.4155,-0.427,-0.4382,-0.4472,-0.4536,-0.4674,-0.4696,-0.4755,-0.4784,-0.4766,-0.4864,-0.4808,-0.4765,-0.4675,-0.4799,-0.475,-0.4755,-0.4648,-0.4644,-0.4641,-0.4639,0,0,-0.3568,-0.3668,-0.3738,-0.3831,-0.3912,-0.3993,-0.4091,-0.4173,-0.4298,-0.4359,-0.4368,-0.449,-0.4498,-0.4586,-0.4648,-0.4641,-0.4612,-0.4625,-0.4744,-0.4757,-0.4768,-0.4728,-0.4736,-0.4634,-0.4633,-0.4632,-0.4631,0,-0.3554,-0.3633,-0.3704,-0.3783,-0.3903,-0.3949,-0.3999,-0.4101,-0.4173,-0.4293,-0.429,-0.4361,-0.4424,-0.4441,-0.445,-0.4596,-0.451,-0.461,-0.4719,-0.472,-0.4737,-0.475,-0.4716,-0.4725,-0.4624,-0.4624,-0.4625,0,-0.3512,-0.3574,-0.3617,-0.3725,-0.379,-0.3877,-0.3875,-0.3982,-0.4071,-0.4031,-0.4177,-0.4189,-0.4186,-0.4277,-0.432,-0.4275,-0.4405,-0.4379,-0.4394,-0.4389,-0.4383,-0.4403,-0.442,-0.4186,-0.4185,-0.4184,0,0,-0.35,-0.3572,-0.3649,-0.3722,-0.3768,-0.3838,-0.3891,-0.3939,-0.4001,-0.4042,-0.4078,-0.4114,-0.4149,-0.4183,-0.4203,-0.4279,-0.4227,-0.433,-0.4351,-0.4368,-0.4373,-0.4371,-0.4391,-0.418,-0.418,-0.4179,0,0,-0.3483,-0.3573,-0.3606,-0.3687,-0.3764,-0.3816,-0.3882,-0.392,-0.4,-0.4026,-0.4013,-0.4021,-0.4123,-0.4098,-0.405,-0.4185,-0.4094,-0.4104,-0.4214,-0.4239,-0.4259,-0.426,-0.3972,0,0,0,0,0,-0.3504,-0.3557,-0.3587,-0.3609,-0.3718,-0.3798,-0.3814,-0.3877,-0.3904,-0.396,-0.4004,-0.3962,-0.4076,-0.4032,-0.4034,-0.411,-0.4128,-0.4137,-0.4146,-0.4304,-0.4331,-0.4354,0,0,0,0,0,0,-0.3512,-0.3536,-0.3585,-0.3635,-0.3662,-0.3794,-0.3786,-0.3803,-0.3901,-0.391,-0.3956,-0.396,-0.3935,-0.4027,-0.403,-0.4104,-0.3971,-0.4132,-0.414,-0.4147,-0.4314,-0.4335,-0.4354,0,0,0,0,0,-0.3519,-0.3539,-0.3703,-0.3635,-0.3658,-0.375,-0.3786,-0.3801,-0.3891,-0.3883,-0.3893,-0.3948,-0.3934,-0.3939,-0.4029,-0.4105,-0.3969,-0.397,-0.4137,-0.4143,-0.4148,-0.4324,0,0,0,0,0,0,-0.3525,-0.354,-0.3709,-0.3718,-0.3644,-0.3746,-0.3765,-0.3799,-0.3859,-0.3871,-0.3865,-0.387,-0.3932,-0.3937,-0.3941,-0.4109,-0.3967,-0.3968,-0.3969,-0.4141,-0.4146,-0.4151,0,0,0,0,0,0,-0.3531,-0.3547,-0.3713,-0.372,-0.3731,-0.3743,-0.376,-0.3768,-0.3857,-0.3835,-0.3843,-0.3866,-0.3917,-0.3935,-0.3939,-0.3949,-0.3966,-0.3967,-0.3968,-0.3968,-0.4145,-0.4149,0,0,0,0,0,0,-0.3539,-0.3553,-0.3718,-0.3726,-0.3735,-0.3837,-0.3749,-0.385,-0.3893,-0.3829,-0.3897,-0.3898,-0.3914,-0.3919,-0.3937,-0.3945,-0.3948,-0.3966,-0.3967,-0.3967,-0.3967,0,0,0,0,0,0,0,-0.3545,-0.3439,-0.3662,-0.373,-0.3738,-0.3804,-0.3805,-0.3807,-0.3893,-0.3895,-0.3896,-0.3897,-0.3959,-0.3961,-0.3962,-0.3942,0,0,-0.3966,-0.3966,0,0,0,0,0,0,0,0,-0.3434,-0.3437,-0.3662,-0.3664,-0.3667,-0.3804,-0.3805,-0.3807,-0.3894,-0.3895,-0.3896,-0.3897,-0.396,-0.3961,-0.3962,0,0,0,0,0,0,0,0,0,0,0,0,0,0,0,-0.3662,-0.3664,0,-0.3804,-0.3805,-0.3807,-0.3894,-0.3895,-0.3896,-0.3896,-0.396,-0.3961,-0.3962,0,0,0,0,0,0,0,0,0,0,0,0,0,0,0,0,0,0,0,0,0,0,0,0,0,0,0,0,0,0,0,0,0,0,0,0,0,0,0,0,0,0,0,0,0,0,0,0,0,0,0,0,0,0,0,0,0,0,0,0,0,0,0,0,0,0,0,0,0]}],[{"header":{"parameterUnit":"kt","parameterCategory":2,"dx":1,"dy":1,"la1":30.253999710083008,"la2":30.299108505249023,"lo1":-89.0895004272461,"lo2":-89.04439544677734,"nx":28,"ny":28,"refTime":"2022-10-28T21:00:00:Z","depth":"4","parameterNumber":3,"parameterNumberName":"V-component_of_CURRENTS"},"data":[-0.1621,-0.1783,-0.1863,-0.2049,-0.216,-0.2282,-0.2291,-0.2198,-0.2033,-0.1844,-0.1497,-0.1269,-0.0661,-0.0883,-0.0066,0.0046,0.0193,0.0795,0.08,0.1039,0.1041,0.1042,0.0884,0,0,0,0,0,-0.1587,-0.17,-0.1856,-0.2007,-0.2148,-0.221,-0.222,-0.2175,-0.2027,-0.1835,-0.168,-0.1287,-0.0684,-0.0384,-0.0052,0.0092,0.058,0.0482,0.0669,0.104,0.1042,0.0887,0,0,0,0,0,0,-0.1545,-0.164,-0.1767,-0.1907,-0.2049,-0.2122,-0.2127,-0.2025,-0.195,-0.1652,-0.1558,-0.1077,-0.0772,-0.0226,0.0151,0.0498,0.0562,0.064,0.0663,0.0669,0.0487,0.0307,0.0378,0,0,0,0,0,-0.1489,-0.154,-0.1623,-0.1802,-0.1894,-0.1973,-0.199,-0.1977,-0.1814,-0.1705,-0.1395,-0.1043,-0.0635,-0.0136,0.0265,0.063,0.0904,0.1003,0.1005,0.0955,0.0861,0.09,0.0884,0.1048,0.1048,0.1048,0.1048,0,-0.1406,-0.1463,-0.1581,-0.1664,-0.169,-0.1753,-0.1785,-0.1681,-0.1637,-0.14,-0.1345,-0.0989,-0.0725,-0.0107,0.0292,0.0804,0.0862,0.1006,0.0951,0.0861,0.0905,0.0887,0.087,0.1049,0.1049,0.1049,0.1049,0,-0.1356,-0.1378,-0.1469,-0.1496,-0.152,-0.1569,-0.1557,-0.1545,-0.1398,-0.1309,-0.1254,-0.0898,-0.0531,-0.0131,0.0329,0.0514,0.084,0.0932,0.0814,0.0867,0.0882,0.0864,0.1051,0.1051,0.1051,0.105,0.105,0,-0.1259,-0.132,-0.1346,-0.1384,-0.1461,-0.1374,-0.1394,-0.1306,-0.1171,-0.1115,-0.0857,-0.0732,-0.0325,-0.0045,0.023,0.0556,0.0622,0.0747,0.081,0.0744,0.0728,0.0811,0.0801,0.0883,0.0881,0.0879,0.0878,0,-0.1166,-0.1201,-0.1274,-0.1273,-0.1237,-0.1239,-0.1205,-0.106,-0.1015,-0.0825,-0.0761,-0.0488,-0.0346,-0.0078,0.0251,0.0237,0.0624,0.0655,0.0756,0.0753,0.0798,0.079,0.0876,0.0876,0.0875,0.0875,0.0874,0,-0.1051,-0.1086,-0.1153,-0.1149,-0.1144,-0.1138,-0.106,-0.1004,-0.082,-0.0734,-0.0569,-0.0415,-0.0206,-0.0134,0.0219,0.014,0.0312,0.0466,0.0479,0.0468,0.0516,0.0578,0.0632,0.0629,0.0626,0.0624,0.0622,0,-0.0977,-0.1035,-0.0984,-0.1022,-0.1039,-0.093,-0.0887,-0.0791,-0.0683,-0.0582,-0.0392,-0.0282,-0.0177,-0.0111,0.0024,0.0228,0.0335,0.0222,0.0537,0.0545,0.0464,0.0505,0.0369,0.0585,0.0589,0.0593,0.0595,0,-0.0903,-0.0883,-0.0891,-0.0906,-0.0826,-0.0809,-0.0749,-0.0666,-0.0628,-0.049,-0.0419,-0.0236,-0.0146,-0.0062,0.0059,0.0175,0.0285,0.0238,0.0248,0.0296,0.0536,0.0469,0.0485,0.0353,0.0356,0.0359,0.0569,0,-0.0811,-0.0824,-0.0831,-0.0801,-0.0765,-0.0758,-0.0656,-0.0603,-0.0532,-0.045,-0.0321,-0.0167,-0.0032,0.0024,0.0093,0.0206,0.0235,0.0284,0.0317,0.0332,0.0422,0.0442,0.0238,0.024,0.0241,0.0243,0,0,-0.0751,-0.0765,-0.0698,-0.0699,-0.068,-0.0576,-0.0582,-0.0511,-0.0396,-0.0352,-0.032,-0.0094,0.0007,0.0136,0.0145,0.0203,0.0272,0.02,0.0318,0.0326,0.0333,0.0419,0.0436,0.0245,0.0246,0.0246,0.0247,0,-0.0711,-0.0685,-0.0704,-0.0663,-0.0604,-0.0545,-0.054,-0.0446,-0.0398,-0.0322,-0.0224,-0.0121,0.0014,0.0116,0.0183,0.0215,0.0301,0.0243,0.0201,0.0327,0.0332,0.0338,0.0423,0.0437,0.0251,0.025,0.025,0,-0.0652,-0.0621,-0.0622,-0.0569,-0.0521,-0.0496,-0.0425,-0.0389,-0.036,-0.0238,-0.0172,-0.0077,0.0051,0.0135,0.018,0.02,0.0336,0.0284,0.0279,0.027,0.0403,0.0409,0.0414,0.0346,0.0346,0.0346,0,0,-0.0623,-0.0626,-0.0548,-0.0553,-0.0529,-0.0445,-0.0414,-0.0368,-0.0287,-0.0253,-0.0162,-0.0059,0.0035,0.0091,0.0178,0.0257,0.0331,0.0289,0.0284,0.028,0.0269,0.0399,0.0405,0.0344,0.0344,0.0344,0,0,-0.0599,-0.0539,-0.0516,-0.0518,-0.046,-0.0365,-0.0356,-0.0307,-0.0228,-0.0222,-0.011,-0.0081,0.0001,0.0076,0.0046,0.0189,0.0216,0.0225,0.0124,0.012,0.0116,0.0077,0.0109,0,0,0,0,0,-0.0529,-0.0549,-0.0529,-0.052,-0.044,-0.038,-0.0364,-0.0298,-0.0274,-0.0266,-0.0173,-0.0125,0.0087,0.0063,0.009,0.0105,0.0327,0.033,0.0333,0.0223,0.0218,0.0213,0,0,0,0,0,0,-0.0525,-0.0515,-0.0528,-0.0441,-0.0421,-0.0379,-0.033,-0.0311,-0.0274,-0.0266,-0.0143,-0.0121,-0.0047,0.0055,0.0078,0.0091,0.0102,0.0329,0.0331,0.0333,0.0221,0.0217,0.0213,0,0,0,0,0,-0.0521,-0.0513,-0.0414,-0.0438,-0.0422,-0.0335,-0.033,-0.0314,-0.0281,-0.0164,-0.0142,-0.0236,-0.0049,-0.0024,0.0069,0.0078,0.0087,0.0095,0.033,0.0332,0.0334,0.0219,0,0,0,0,0,0,-0.0518,-0.0485,-0.0408,-0.0398,-0.044,-0.0335,-0.0321,-0.0317,-0.0179,-0.0159,-0.0251,-0.0247,-0.0051,-0.003,-0.0011,0.0069,0.0074,0.0083,0.0088,0.0332,0.0333,0.0335,0,0,0,0,0,0,-0.0488,-0.0478,-0.0403,-0.0409,-0.0399,-0.0336,-0.0323,-0.024,-0.0177,-0.0272,-0.0266,-0.0251,-0.0067,-0.0035,-0.002,0.0108,0.0065,0.0073,0.0078,0.0082,0.0333,0.0334,0,0,0,0,0,0,-0.0482,-0.0473,-0.0411,-0.0404,-0.0395,-0.0281,-0.0257,-0.0171,-0.0212,-0.0278,-0.0211,-0.021,-0.0072,-0.0056,-0.0026,0.0095,0.0105,0.0065,0.0071,0.0074,0.0077,0,0,0,0,0,0,0,-0.0477,-0.0566,-0.0467,-0.0399,-0.0392,-0.031,-0.0307,-0.0304,-0.0212,-0.0211,-0.0211,-0.021,0.0019,0.0028,0.0037,0.0084,0,0,0.0064,0.0068,0,0,0,0,0,0,0,0,-0.0567,-0.0566,-0.0467,-0.0465,-0.0463,-0.031,-0.0307,-0.0305,-0.0212,-0.0211,-0.0211,-0.0211,0.0022,0.0029,0.0036,0,0,0,0,0,0,0,0,0,0,0,0,0,0,0,-0.0466,-0.0465,0,-0.0309,-0.0307,-0.0306,-0.0211,-0.0211,-0.0211,-0.0211,0.0024,0.0029,0.0035,0,0,0,0,0,0,0,0,0,0,0,0,0,0,0,0,0,0,0,0,0,0,0,0,0,0,0,0,0,0,0,0,0,0,0,0,0,0,0,0,0,0,0,0,0,0,0,0,0,0,0,0,0,0,0,0,0,0,0,0,0,0,0,0,0,0,0,0,0]}]]]